Temperature
4 5 4 4 5 6 6 7 9 11 12 13 13 13 13 13 12 12 11 11 12 12 13 13 14 15 15 16 16 16 15 15 15 14 13 13 12 12 11 11 10 10 10 10
4 5 5 5 6 6 6 7 9 10 11 12 12 12 12 12 11 11 11 11 11 12 12 13 14 14 15 15 15 15 15 15 14 14 13 12 12 11 11 10 10 10 10 10
3 5 5 5 6 6 7 7 9 9 10 11 11 11 11 11 11 11 11 11 11 12 12 13 13 14 15 15 15 15 15 15 14 14 13 12 12 11 11 10 10 10 10 9
3 3 3 6 7 7 7 7 7 8 8 9 10 10 10 10 10 10 10 11 11 11 12 13 13 13 14 14 15 14 14 14 14 13 13 12 11 11 11 10 10 9 9 9
2 3 4 6 6 6 6 6 6 7 8 8 8 10 10 9 9 9 10 10 11 11 12 12 13 13 14 14 14 14 14 14 13 13 12 12 11 11 10 10 9 9 9 9
2 2 4 5 5 5 6 5 6 6 7 7 8 9 10 9 8 9 9 10 10 11 12 12 12 13 13 13 14 14 14 13 13 12 12 12 11 11 10 9 9 9 9 9
1 2 4 4 4 5 5 5 5 5 6 6 7 7 8 8 8 8 8 9 10 11 11 12 12 12 13 13 13 13 13 13 12 12 12 11 11 10 9 9 9 8 8 8
1 2 3 4 4 4 4 4 4 4 4 5 5 6 6 7 7 7 8 9 9 10 11 11 12 12 12 13 13 13 13 12 12 11 11 11 10 10 9 9 8 8 8 8
2 3 4 4 3 3 3 3 3 4 4 4 4 5 5 6 6 7 7 8 9 9 10 11 11 11 12 12 12 12 12 12 11 11 10 10 10 9 9 8 8 8 8 7
2 3 3 3 3 3 3 3 3 3 3 3 3 4 4 5 5 6 7 7 8 9 9 10 10 11 11 12 12 12 11 11 11 10 10 9 9 9 8 8 8 8 7 7
1 2 3 3 2 2 2 2 2 2 2 2 3 3 4 4 5 5 6 7 7 8 8 9 10 10 11 11 11 11 11 10 10 9 9 9 8 8 8 8 8 7 7 7
1 2 1 2 1 1 1 1 1 1 2 2 2 2 3 3 4 5 5 6 7 7 8 9 9 9 10 10 10 10 10 9 9 9 8 8 7 7 7 7 7 6 6 6
0 0 0 0 0 0 0 0 1 1 1 1 1 2 2 3 4 4 5 6 6 7 7 8 8 9 9 9 9 9 9 9 8 8 8 7 7 7 6 6 6 5 5 5
-1 -1 -1 -0 -1 -1 -1 -0 0 0 0 1 1 1 2 2 3 4 4 5 6 6 7 7 8 8 8 8 8 8 8 8 8 8 7 7 7 6 6 6 5 5 4 4
-1 -2 -2 -1 -1 -1 -1 -1 -0 -0 0 0 1 1 1 2 2 3 4 4 5 6 6 7 7 7 7 7 7 8 8 7 7 7 7 7 6 6 5 5 5 4 4 4
-2 -2 -2 -2 -2 -2 -1 -1 -1 -1 -0 -0 0 1 1 1 2 3 3 4 5 5 6 6 6 7 7 7 7 7 7 7 7 6 6 6 5 5 5 4 4 4 3 3
-3 -3 -3 -2 -2 -2 -2 -2 -2 -1 -1 -1 -0 0 0 1 1 2 3 3 4 5 5 5 6 6 6 6 6 6 6 6 6 6 5 5 5 4 4 4 4 3 3 3
-4 -4 -4 -4 -3 -3 -3 -2 -2 -2 -1 -1 -0 -0 -0 1 1 2 3 3 4 4 4 5 5 5 5 5 5 5 5 5 5 5 4 4 4 4 3 3 3 3 2 2
-5 -5 -5 -4 -4 -4 -4 -3 -3 -2 -1 -1 -1 -0 0 1 1 2 2 3 3 3 4 4 4 5 5 5 5 5 5 4 4 4 4 3 3 3 3 2 2 2 2 1
-6 -5 -5 -5 -5 -4 -4 -3 -3 -2 -2 -2 -1 -1 -0 0 1 1 2 2 3 3 3 4 4 4 4 4 4 4 4 4 3 3 3 3 3 2 2 2 2 1 1 1
-6 -6 -6 -6 -5 -5 -4 -4 -3 -2 -2 -2 -2 -1 -0 0 1 1 1 2 2 2 3 3 3 4 4 3 3 3 3 3 3 3 2 2 2 2 2 1 1 1 1 0
-7 -7 -6 -6 -5 -5 -4 -4 -3 -3 -2 -2 -2 -1 -1 -0 -0 0 1 1 2 2 2 2 3 3 3 3 3 3 3 2 2 2 2 2 1 1 1 1 1 0 -0 -0
-7 -7 -6 -6 -6 -5 -4 -4 -4 -3 -3 -2 -2 -1 -1 -1 -0 0 0 1 1 1 1 2 2 2 2 2 2 2 2 2 2 1 1 1 1 1 0 0 -0 -0 -1 -1
-7 -7 -6 -6 -6 -5 -5 -4 -4 -4 -3 -3 -2 -2 -1 -1 -1 -0 0 0 0 0 1 1 1 1 1 1 1 1 1 1 1 1 0 0 -0 -0 -0 -0 -1 -1 -1 -2
-8 -7 -7 -7 -6 -6 -6 -5 -5 -4 -4 -4 -3 -3 -2 -2 -1 -1 -1 -1 -1 -0 -0 -1 -0 0 0 0 0 0 0 -0 -0 -0 -0 -1 -1 -1 -1 -1 -1 -2 -2 -2
-8 -8 -8 -7 -7 -7 -6 -6 -6 -5 -5 -4 -4 -4 -3 -3 -2 -2 -2 -2 -1 -1 -1 -1 -1 -1 -1 -1 -1 -1 -1 -1 -1 -1 -1 -1 -1 -1 -2 -2 -2 -3 -3 -3
-8 -8 -8 -8 -7 -7 -7 -6 -6 -6 -6 -5 -5 -5 -4 -4 -3 -3 -3 -3 -2 -2 -2 -2 -2 -2 -1 -1 -1 -2 -2 -2 -2 -2 -2 -2 -2 -2 -3 -3 -3 -3 -4 -4
Wind_Speed
10 10 9 10 12 13 14 15 15 17 17 12 6 5 4 3 2 1 2 2 3 3 3 4 4 5 6 8 9 11 13 14 15 15 16 16 16 16 16 15 15 15 15 15
10 9 9 12 13 14 16 18 19 17 16 10 6 4 3 3 2 1 2 2 2 2 3 3 4 5 5 7 8 10 12 12 12 13 14 14 15 14 14 14 14 14 15 15
7 8 7 9 10 12 13 15 16 16 12 7 6 6 5 4 3 2 1 1 2 3 3 4 4 5 5 6 8 9 10 11 12 13 13 13 13 14 14 14 14 14 14 14
5 5 7 4 4 8 11 10 10 9 7 7 8 7 5 4 4 4 4 3 2 2 3 3 3 4 4 6 8 9 9 10 11 12 12 13 13 14 13 12 13 13 13 13
4 5 8 5 3 5 9 8 8 9 8 7 7 6 5 5 6 7 6 5 4 3 3 3 3 4 5 6 7 8 9 10 11 11 12 13 13 13 12 12 11 11 11 12
5 5 6 3 6 6 6 6 4 5 5 6 6 7 7 8 9 8 7 6 5 4 3 3 4 5 6 6 8 9 9 9 10 11 12 12 12 12 10 10 10 10 9 10
8 7 6 5 7 2 5 3 5 5 6 6 7 9 10 10 9 8 8 7 6 4 3 4 4 5 6 6 7 8 8 8 9 10 11 11 11 10 11 10 10 10 9 8
6 7 6 3 2 1 3 5 7 7 8 9 10 12 11 11 10 9 9 8 6 5 4 3 4 6 6 6 6 6 8 9 9 9 9 9 11 10 11 11 11 10 9 8
6 7 5 4 5 6 6 8 9 10 11 11 12 13 13 13 12 11 9 8 6 6 5 3 5 6 6 6 6 7 9 9 9 9 9 10 11 12 11 10 9 9 9 8
8 10 11 10 10 9 9 11 13 13 13 13 14 14 14 12 12 11 9 8 6 6 5 5 4 5 5 6 7 9 9 9 9 9 9 9 8 9 9 10 10 9 9 8
13 13 13 11 11 12 14 15 15 14 13 13 14 15 14 12 12 10 9 8 7 7 6 6 4 4 5 7 8 9 9 9 9 9 9 8 7 6 7 7 8 10 9 9
12 11 11 15 15 16 17 17 16 16 16 14 13 14 14 12 11 10 9 8 7 7 6 5 5 5 5 7 8 10 9 9 8 8 8 8 8 7 7 6 9 8 9 9
16 17 17 19 19 18 17 18 17 16 16 16 14 13 12 12 10 9 9 9 8 7 6 6 5 5 6 7 8 9 10 10 8 8 9 9 9 9 8 8 10 10 11 11
15 15 17 17 17 17 18 18 17 16 15 14 13 12 10 10 9 9 9 8 6 5 5 5 5 5 6 7 7 8 9 9 9 9 9 9 9 9 9 10 9 7 8 11
14 14 16 17 17 17 16 15 15 15 14 13 11 10 10 10 9 8 7 5 5 5 5 5 5 5 5 6 7 8 8 8 8 8 8 8 8 8 8 9 9 8 7 8
14 15 15 16 17 17 16 15 15 15 13 13 12 11 10 9 8 6 5 5 6 6 5 5 5 5 5 7 7 6 6 9 9 8 8 8 8 8 8 9 9 8 8 8
14 14 15 15 16 17 16 15 15 15 14 13 12 10 9 7 6 5 4 4 4 4 4 5 5 5 5 7 7 6 7 8 10 9 8 8 8 8 8 8 8 8 7 7
13 15 16 16 16 16 16 15 14 14 13 12 10 9 8 8 7 5 4 3 3 2 3 4 5 5 6 7 6 6 7 7 7 8 8 8 8 8 8 8 8 8 7 7
13 14 15 15 15 15 15 14 14 12 11 9 8 8 7 6 6 5 4 5 5 4 3 5 7 6 6 7 7 7 8 8 8 8 8 10 9 8 8 8 8 8 8 7
14 14 15 15 14 14 13 12 11 10 8 7 6 5 5 5 5 5 4 3 2 3 5 6 6 6 6 7 8 7 8 9 9 9 8 8 8 8 8 8 8 8 7 7
15 14 14 13 13 12 11 10 9 8 6 6 6 5 4 4 5 5 5 4 2 5 6 7 5 6 6 8 9 8 8 9 9 8 8 8 8 8 8 8 7 7 7 6
13 12 12 11 10 9 8 6 5 5 4 3 3 4 4 4 5 4 3 3 5 6 5 5 5 8 9 10 7 8 8 9 8 8 8 8 8 8 8 8 7 7 6 6
12 11 10 9 7 7 6 4 3 3 2 2 3 4 5 4 4 5 4 4 5 7 6 5 9 13 13 8 7 8 8 8 8 7 7 7 7 7 8 8 7 6 6 6
11 10 8 7 5 4 4 3 2 1 1 1 2 3 4 4 4 3 5 7 9 9 7 9 13 13 12 7 8 8 8 7 7 7 7 7 7 7 7 7 6 6 6 6
10 8 7 6 4 3 3 2 3 3 4 3 4 4 3 3 5 6 7 8 11 11 8 10 13 13 9 8 8 7 7 7 8 8 7 7 7 7 6 6 6 6 5 5
8 6 5 5 4 3 2 2 2 2 3 4 4 5 5 6 7 7 7 9 11 11 9 7 8 9 8 8 8 8 8 8 8 7 7 7 7 7 6 6 6 5 5 4
7 6 4 4 4 3 3 3 3 3 4 5 6 5 6 6 7 8 9 8 8 8 8 8 8 8 8 8 8 8 8 7 7 7 6 6 6 6 6 6 5 4 4 4
Wind_Direction
271 272 257 256 253 239 229 229 227 228 230 232 250 257 254 252 244 213 199 189 182 186 186 182 178 178 182 184 183 182 184 190 194 193 194 194 195 194 193 193 193 193 194 195
268 264 259 258 251 241 232 231 235 240 240 244 263 279 274 267 270 261 226 213 207 208 203 198 190 182 179 180 180 180 183 186 186 186 187 189 189 188 187 188 188 189 192 192
268 279 267 250 240 234 225 227 231 235 240 248 257 262 268 279 288 289 281 250 233 229 225 215 202 186 181 179 174 177 180 179 180 182 184 184 181 182 183 185 184 187 189 189
273 273 237 252 249 238 232 234 242 250 266 260 260 260 261 268 288 300 313 314 286 261 248 234 204 186 171 166 170 173 175 175 177 178 179 177 178 180 181 181 183 184 184 185
253 258 264 272 273 252 236 242 253 254 266 282 287 268 266 301 304 293 292 295 289 272 250 228 201 179 165 163 168 175 179 178 176 176 174 175 177 179 177 176 178 178 178 179
245 251 248 293 319 299 241 244 295 278 277 286 288 245 257 303 305 303 305 304 301 293 259 214 192 172 171 172 177 185 185 180 176 175 174 175 176 173 171 170 170 166 168 176
238 249 261 306 324 307 211 259 315 296 286 289 265 263 286 298 295 294 298 303 302 288 258 222 190 177 181 182 192 189 178 172 172 173 174 172 169 168 163 160 158 159 159 164
229 237 249 341 343 267 285 310 315 313 305 295 285 287 296 294 292 292 294 296 297 288 272 231 196 187 189 194 188 173 167 166 168 169 165 165 164 162 161 158 157 158 158 157
237 249 283 298 288 287 301 305 306 306 304 300 293 289 290 288 286 285 285 287 286 280 271 241 211 199 196 190 171 167 165 165 164 162 163 165 165 162 161 162 163 163 163 163
261 262 277 282 288 292 301 303 302 299 297 295 291 290 288 285 285 285 285 283 279 272 261 245 227 213 198 177 169 166 165 163 162 160 159 161 162 164 166 168 167 166 167 166
261 275 288 280 285 296 303 304 304 302 296 292 288 286 284 283 281 281 282 280 270 259 251 240 224 207 186 173 167 165 163 162 162 160 157 156 154 158 166 172 174 169 171 167
262 277 279 283 291 297 299 299 300 301 299 296 287 282 282 279 277 276 274 273 265 254 243 230 211 198 187 177 170 165 164 165 164 161 156 153 145 126 95 121 128 135 143 150
265 277 279 282 287 290 292 294 295 294 291 292 289 282 279 277 275 273 270 266 255 244 231 215 199 193 186 178 174 171 168 166 163 161 159 156 153 150 139 113 109 121 132 136
269 274 276 280 284 289 290 291 291 290 287 285 284 282 277 275 272 267 264 261 252 237 218 202 190 189 184 177 171 165 162 160 160 161 160 159 158 157 154 150 146 135 130 135
271 271 273 281 284 286 289 291 291 289 289 287 283 278 273 270 266 264 261 248 230 216 205 191 181 183 178 169 163 159 159 161 158 156 155 155 153 152 150 149 146 141 135 135
284 282 280 280 282 285 288 288 287 287 287 284 283 279 275 270 265 260 248 225 206 202 198 187 181 179 171 161 154 151 153 152 153 152 151 150 150 151 151 151 149 149 152 151
287 287 288 288 287 287 286 284 283 283 282 278 278 278 270 257 250 244 236 225 206 198 194 182 174 167 163 159 152 148 147 148 145 146 150 152 152 152 152 152 151 152 152 154
282 282 284 284 285 286 286 285 283 280 276 273 274 267 252 239 233 228 213 187 162 157 171 171 165 159 159 155 147 145 146 151 152 149 147 148 147 147 147 147 148 146 144 145
296 291 289 287 284 282 282 283 282 280 275 269 260 254 247 237 224 211 192 178 171 170 184 161 150 151 151 147 141 141 142 142 139 139 139 141 140 142 145 146 146 148 147 149
303 299 294 290 286 281 280 282 282 277 270 259 249 237 226 221 204 191 176 172 195 177 161 154 147 143 142 140 136 138 139 140 140 139 138 141 141 143 143 143 145 146 148 150
307 302 296 291 288 284 281 281 279 275 268 249 234 217 202 194 183 175 161 154 153 141 142 141 140 138 136 136 131 133 134 135 136 139 140 140 141 141 142 144 144 145 146 147
310 306 301 294 289 289 289 286 279 273 263 240 211 182 166 163 157 144 135 149 146 138 137 135 131 133 137 131 127 127 128 130 133 136 139 141 143 143 144 143 143 143 145 147
312 308 304 300 296 296 302 300 289 272 253 218 188 177 167 161 156 145 138 140 140 130 126 127 131 130 127 120 119 122 126 128 131 134 135 135 138 140 141 140 141 143 145 147
318 318 317 316 314 317 325 333 351 14 61 95 117 135 139 132 112 97 112 122 121 115 110 119 123 122 116 113 116 118 121 123 125 126 126 127 130 132 135 138 138 139 141 145
321 323 328 336 339 341 354 24 53 69 76 83 86 85 91 104 113 113 110 112 112 107 105 110 111 109 105 106 111 114 117 120 123 125 125 129 130 130 131 134 137 140 144 150
327 331 335 339 342 349 5 51 72 78 88 95 87 83 86 92 100 104 104 103 101 99 98 99 99 97 98 102 104 106 108 112 111 112 120 123 125 126 128 130 133 139 143 148
337 343 350 360 7 15 33 62 78 82 88 98 96 90 93 96 99 101 101 99 96 94 93 92 92 93 96 97 99 98 99 101 104 108 112 115 118 121 126 129 131 133 139 147
Height
1378 1375 1375 1373 1370 1369 1368 1363 1356 1347 1345 1345 1349 1350 1351 1353 1354 1355 1356 1357 1358 1360 1362 1364 1366 1369 1372 1375 1379 1383 1387 1391 1395 1400 1405 1410 1414 1419 1424 1428 1433 1437 1442 1446
1376 1370 1369 1368 1364 1362 1361 1359 1354 1349 1347 1347 1351 1352 1351 1352 1353 1353 1354 1355 1357 1358 1359 1361 1364 1366 1369 1372 1375 1379 1383 1387 1391 1396 1400 1404 1409 1414 1419 1423 1428 1432 1436 1441
1373 1367 1366 1362 1358 1356 1355 1353 1351 1348 1349 1350 1352 1352 1352 1352 1352 1353 1353 1354 1355 1356 1358 1359 1362 1364 1366 1369 1372 1376 1379 1383 1387 1391 1395 1400 1404 1409 1414 1418 1423 1427 1431 1436
1376 1370 1367 1355 1352 1353 1352 1352 1353 1352 1352 1352 1351 1351 1352 1353 1352 1352 1352 1353 1353 1355 1356 1358 1360 1362 1365 1367 1370 1373 1377 1380 1384 1388 1392 1396 1400 1404 1409 1413 1418 1422 1427 1431
1376 1367 1357 1352 1353 1353 1353 1353 1354 1353 1353 1353 1352 1350 1349 1350 1351 1352 1352 1352 1352 1353 1355 1356 1358 1360 1362 1365 1368 1371 1374 1377 1381 1385 1388 1392 1396 1400 1405 1409 1414 1418 1423 1427
1375 1368 1357 1353 1353 1352 1353 1352 1354 1353 1353 1353 1352 1350 1347 1349 1349 1350 1350 1351 1351 1351 1352 1354 1356 1358 1359 1362 1365 1368 1371 1375 1378 1382 1386 1389 1393 1397 1402 1406 1410 1415 1419 1423
1373 1367 1356 1356 1355 1352 1355 1354 1355 1354 1353 1353 1352 1351 1350 1349 1348 1348 1348 1348 1348 1348 1349 1351 1353 1355 1357 1359 1362 1365 1369 1372 1375 1379 1383 1387 1391 1395 1399 1403 1407 1411 1416 1420
1370 1366 1361 1356 1356 1357 1356 1354 1354 1353 1353 1352 1350 1349 1348 1346 1345 1344 1344 1344 1345 1345 1346 1348 1349 1351 1353 1356 1359 1362 1365 1369 1372 1376 1380 1384 1388 1392 1396 1400 1404 1408 1412 1416
1366 1360 1356 1357 1357 1356 1356 1355 1353 1352 1351 1350 1347 1345 1344 1342 1341 1341 1340 1340 1341 1342 1342 1344 1346 1348 1350 1353 1356 1358 1362 1365 1369 1373 1377 1381 1385 1389 1393 1397 1400 1404 1408 1412
1362 1355 1356 1355 1354 1354 1353 1352 1351 1349 1347 1345 1344 1341 1339 1338 1336 1335 1335 1336 1336 1337 1338 1339 1341 1343 1346 1349 1352 1355 1358 1361 1366 1369 1373 1378 1382 1386 1390 1393 1397 1400 1404 1408
1358 1355 1353 1351 1351 1351 1349 1348 1346 1344 1343 1341 1339 1336 1334 1333 1331 1330 1330 1330 1331 1332 1333 1334 1337 1339 1342 1345 1347 1350 1354 1358 1362 1366 1370 1374 1378 1383 1387 1391 1394 1398 1401 1405
1354 1353 1353 1349 1348 1347 1345 1343 1341 1338 1335 1334 1333 1330 1328 1327 1326 1325 1325 1325 1326 1327 1328 1330 1332 1335 1338 1340 1344 1347 1350 1354 1358 1362 1366 1371 1375 1379 1384 1388 1392 1396 1399 1402
1352 1351 1349 1345 1344 1342 1340 1337 1335 1333 1330 1328 1326 1325 1323 1321 1320 1320 1319 1320 1320 1321 1323 1325 1328 1330 1333 1337 1340 1343 1347 1351 1355 1359 1363 1367 1371 1375 1379 1384 1389 1393 1396 1399
1347 1346 1342 1340 1338 1336 1334 1331 1329 1326 1324 1322 1320 1318 1317 1315 1314 1314 1314 1314 1315 1316 1318 1321 1323 1326 1330 1333 1337 1340 1344 1348 1352 1355 1360 1364 1369 1373 1376 1380 1384 1388 1393 1396
1340 1339 1337 1334 1331 1330 1328 1325 1323 1319 1317 1315 1314 1313 1311 1310 1309 1309 1309 1310 1311 1312 1314 1317 1319 1323 1327 1330 1333 1337 1341 1345 1349 1353 1357 1362 1366 1370 1374 1378 1382 1385 1389 1393
1334 1332 1330 1328 1325 1323 1321 1319 1316 1313 1311 1310 1308 1307 1306 1305 1304 1304 1304 1306 1307 1309 1311 1314 1316 1320 1324 1327 1330 1334 1338 1342 1346 1350 1355 1359 1363 1367 1371 1375 1379 1382 1386 1389
1329 1325 1323 1320 1318 1315 1314 1312 1310 1307 1306 1304 1302 1302 1301 1300 1300 1300 1301 1303 1305 1306 1309 1311 1314 1318 1321 1325 1328 1331 1335 1339 1344 1348 1352 1356 1360 1364 1368 1372 1376 1380 1383 1387
1323 1320 1318 1315 1312 1309 1306 1304 1303 1301 1299 1298 1297 1296 1296 1295 1295 1296 1298 1300 1301 1304 1307 1310 1313 1316 1319 1322 1326 1329 1333 1337 1341 1345 1349 1354 1358 1362 1366 1370 1374 1377 1381 1384
1316 1313 1310 1307 1304 1302 1299 1297 1296 1294 1293 1292 1292 1291 1291 1291 1291 1293 1295 1297 1299 1301 1304 1308 1311 1314 1317 1320 1324 1327 1331 1335 1339 1343 1348 1352 1356 1360 1364 1367 1371 1375 1378 1381
1309 1305 1302 1299 1297 1295 1292 1290 1289 1288 1287 1287 1286 1286 1286 1287 1288 1290 1292 1294 1296 1299 1302 1306 1309 1312 1315 1319 1322 1326 1330 1334 1338 1342 1346 1350 1354 1358 1362 1365 1369 1373 1376 1378
1302 1298 1294 1291 1289 1288 1286 1284 1283 1282 1281 1282 1282 1282 1282 1283 1286 1288 1290 1292 1295 1298 1301 1304 1307 1310 1314 1317 1321 1325 1329 1333 1337 1340 1344 1348 1352 1356 1360 1363 1367 1370 1373 1376
1296 1292 1288 1286 1284 1282 1280 1279 1278 1277 1277 1278 1278 1279 1280 1281 1284 1286 1288 1291 1294 1297 1299 1302 1306 1309 1313 1317 1321 1324 1328 1332 1336 1339 1343 1347 1351 1354 1358 1361 1364 1367 1371 1373
1292 1288 1284 1281 1279 1277 1276 1275 1274 1274 1274 1275 1275 1277 1278 1280 1282 1284 1287 1291 1293 1297 1299 1302 1306 1310 1313 1317 1320 1324 1328 1331 1335 1339 1342 1346 1349 1353 1356 1359 1362 1365 1368 1371
1288 1284 1281 1278 1276 1274 1273 1272 1271 1272 1272 1273 1274 1275 1277 1279 1281 1284 1287 1290 1293 1297 1299 1303 1306 1310 1313 1317 1320 1324 1328 1331 1335 1338 1341 1345 1348 1351 1355 1358 1360 1363 1366 1368
1286 1282 1279 1276 1274 1273 1272 1270 1270 1270 1271 1272 1273 1275 1277 1279 1281 1284 1287 1290 1294 1297 1300 1303 1307 1310 1314 1317 1321 1324 1328 1331 1334 1337 1341 1344 1347 1350 1353 1356 1358 1361 1364 1366
1284 1281 1278 1276 1274 1272 1271 1271 1270 1270 1271 1272 1273 1275 1278 1280 1282 1285 1288 1291 1294 1297 1300 1304 1307 1311 1314 1318 1321 1325 1328 1331 1334 1338 1341 1343 1346 1349 1352 1354 1357 1359 1361 1364
1283 1281 1278 1276 1274 1273 1272 1271 1271 1272 1272 1273 1274 1277 1279 1281 1284 1286 1289 1292 1295 1298 1302 1305 1309 1312 1316 1319 1322 1325 1328 1332 1335 1338 1340 1343 1345 1348 1350 1353 1355 1357 1359 1361